ARG1705 SAAR-SAZS

Flight info

Callsign ARG1705
Flight time 2h 3m
Altitude 36000
Route VUMKI2G VUMKI DCT KIKIP UT705 OSA UT700 KIKIN UT654 ORERA ORERA2Q
Aircraft B738/M-SDE2E3FGHIRWXY/LB1

Departure

Time 2026-04-26 14:59
Airport Rosario Islas Malvinas International Airport (SAAR)

Arrival

Time 2026-04-26 17:02
Airport Teniente Luis Candelaria International Airport (SAZS)
Time Latitude Longitude Altitude Speed Heading
2026-04-26 14:28 -32.91455 -60.78052 94 ft 0 kts 109°
2026-04-26 14:47 -32.91447 -60.78084 94 ft 4 kts 104°
2026-04-26 14:48 -32.91441 -60.78108 95 ft 4 kts 108°
2026-04-26 14:48 -32.91436 -60.78128 94 ft 4 kts 98°
2026-04-26 14:48 -32.91442 -60.78162 94 ft 4 kts 26°
2026-04-26 14:48 -32.91466 -60.78173 93 ft 4 kts 20°
2026-04-26 14:49 -32.91474 -60.78177 95 ft 0 kts 20°
2026-04-26 14:51 -32.91472 -60.78176 93 ft 1 kts 20°
2026-04-26 14:51 -32.91467 -60.78174 93 ft 2 kts 20°
2026-04-26 14:52 -32.91445 -60.78165 94 ft 5 kts 18°
2026-04-26 14:52 -32.91402 -60.78178 94 ft 8 kts 321°
2026-04-26 14:52 -32.91350 -60.78228 94 ft 11 kts 319°
2026-04-26 14:52 -32.91286 -60.78289 96 ft 13 kts 321°
2026-04-26 14:53 -32.91211 -60.78360 97 ft 14 kts 320°
2026-04-26 14:53 -32.91110 -60.78454 95 ft 14 kts 327°
2026-04-26 14:53 -32.91041 -60.78501 98 ft 7 kts 334°
2026-04-26 14:53 -32.91038 -60.78504 97 ft 0 kts 334°
2026-04-26 14:54 -32.91036 -60.78504 97 ft 1 kts 334°
2026-04-26 14:54 -32.91017 -60.78514 96 ft 7 kts 339°
2026-04-26 14:54 -32.90954 -60.78542 98 ft 12 kts 340°
2026-04-26 14:54 -32.90860 -60.78571 99 ft 16 kts 353°
2026-04-26 14:55 -32.90737 -60.78553 98 ft 20 kts 11°
2026-04-26 14:55 -32.90593 -60.78521 97 ft 22 kts 10°
2026-04-26 14:55 -32.90432 -60.78485 95 ft 25 kts 10°
2026-04-26 14:55 -32.90252 -60.78444 94 ft 27 kts 11°
2026-04-26 14:56 -32.90071 -60.78403 98 ft 26 kts 11°
2026-04-26 14:56 -32.89902 -60.78365 96 ft 24 kts 12°
2026-04-26 14:56 -32.89744 -60.78329 100 ft 23 kts 10°
2026-04-26 14:56 -32.89586 -60.78295 99 ft 24 kts 10°
2026-04-26 14:57 -32.89418 -60.78255 98 ft 26 kts 11°
2026-04-26 14:57 -32.89234 -60.78215 96 ft 26 kts 11°
2026-04-26 14:57 -32.89115 -60.78153 98 ft 11 kts 33°
2026-04-26 14:57 -32.89051 -60.78138 97 ft 6 kts 323°
2026-04-26 14:58 -32.89048 -60.78171 96 ft 4 kts 240°
2026-04-26 14:58 -32.89075 -60.78180 96 ft 4 kts 185°
2026-04-26 14:58 -32.89153 -60.78197 96 ft 37 kts 190°
2026-04-26 14:58 -32.89656 -60.78310 98 ft 108 kts 191°
2026-04-26 14:59 -32.90579 -60.78513 236 ft 152 kts 193°
2026-04-26 14:59 -32.91628 -60.78676 1010 ft 156 kts 191°
2026-04-26 14:59 -32.92697 -60.78845 1975 ft 153 kts 194°
2026-04-26 14:59 -32.93429 -60.79032 2433 ft 168 kts 197°
2026-04-26 15:00 -32.95112 -60.79500 2861 ft 202 kts 196°
2026-04-26 15:00 -32.96496 -60.79841 3606 ft 208 kts 196°
2026-04-26 15:00 -32.98008 -60.80200 4094 ft 230 kts 195°
2026-04-26 15:00 -32.99616 -60.80570 4852 ft 240 kts 196°
2026-04-26 15:01 -33.01204 -60.81189 5582 ft 242 kts 217°
2026-04-26 15:01 -33.02496 -60.82462 6425 ft 242 kts 230°
2026-04-26 15:01 -33.03604 -60.83926 7360 ft 238 kts 233°
2026-04-26 15:01 -33.04676 -60.85419 8355 ft 236 kts 234°
2026-04-26 15:02 -33.05745 -60.86910 9234 ft 238 kts 235°
2026-04-26 15:02 -33.06819 -60.88398 10228 ft 235 kts 235°
2026-04-26 15:02 -33.07915 -60.89914 10728 ft 251 kts 235°
2026-04-26 15:02 -33.09115 -60.91573 10915 ft 276 kts 234°
2026-04-26 15:03 -33.10430 -60.93379 11101 ft 300 kts 234°
2026-04-26 15:03 -33.11848 -60.95315 11314 ft 319 kts 233°
2026-04-26 15:03 -33.13337 -60.97340 11828 ft 328 kts 233°
2026-04-26 15:03 -33.14821 -60.99359 12602 ft 328 kts 233°
2026-04-26 15:04 -33.16361 -61.01371 13410 ft 330 kts 229°
2026-04-26 15:04 -33.18168 -61.03112 14127 ft 336 kts 223°
2026-04-26 15:04 -33.20065 -61.04766 14737 ft 340 kts 222°
2026-04-26 15:04 -33.21979 -61.06443 15348 ft 343 kts 223°
2026-04-26 15:05 -33.23900 -61.08152 15958 ft 345 kts 223°
2026-04-26 15:05 -33.25174 -61.09298 16350 ft 347 kts 223°
2026-04-26 15:05 -33.27765 -61.11641 17113 ft 351 kts 223°
2026-04-26 15:05 -33.29693 -61.13390 17662 ft 354 kts 224°
2026-04-26 15:06 -33.31665 -61.15183 18212 ft 357 kts 224°
2026-04-26 15:06 -33.33649 -61.16988 18692 ft 360 kts 224°
2026-04-26 15:06 -33.35651 -61.18811 19169 ft 363 kts 224°
2026-04-26 15:06 -33.37664 -61.20644 19652 ft 365 kts 224°
2026-04-26 15:07 -33.41791 -61.24293 20593 ft 372 kts 221°
2026-04-26 15:07 -33.43936 -61.26048 21051 ft 375 kts 221°
2026-04-26 15:07 -33.46112 -61.27801 21503 ft 378 kts 220°
2026-04-26 15:08 -33.48298 -61.29560 21925 ft 380 kts 220°
2026-04-26 15:08 -33.50471 -61.31313 22345 ft 383 kts 221°
2026-04-26 15:08 -33.52681 -61.33104 22774 ft 385 kts 221°
2026-04-26 15:08 -33.54899 -61.34910 23196 ft 386 kts 221°
2026-04-26 15:09 -33.57127 -61.36729 23592 ft 389 kts 221°
2026-04-26 15:09 -33.59368 -61.38562 23934 ft 391 kts 221°
2026-04-26 15:09 -33.61611 -61.40400 24276 ft 392 kts 221°
2026-04-26 15:09 -33.63872 -61.42254 24592 ft 394 kts 221°
2026-04-26 15:10 -33.66138 -61.44116 24915 ft 396 kts 221°
2026-04-26 15:10 -33.67648 -61.45356 25122 ft 397 kts 221°
2026-04-26 15:10 -33.70707 -61.47872 25539 ft 400 kts 221°
2026-04-26 15:10 -33.72974 -61.49737 25836 ft 401 kts 221°
2026-04-26 15:11 -33.75280 -61.51635 26134 ft 403 kts 221°
2026-04-26 15:11 -33.77597 -61.53544 26422 ft 404 kts 221°
2026-04-26 15:11 -33.79918 -61.55458 26706 ft 406 kts 221°
2026-04-26 15:11 -33.82249 -61.57381 26970 ft 407 kts 221°
2026-04-26 15:12 -33.84584 -61.59309 27281 ft 407 kts 221°
2026-04-26 15:12 -33.86912 -61.61231 27666 ft 405 kts 221°
2026-04-26 15:12 -33.89231 -61.63145 28092 ft 403 kts 221°
2026-04-26 15:12 -33.91509 -61.65028 28468 ft 402 kts 221°
2026-04-26 15:13 -33.93810 -61.66932 28843 ft 401 kts 221°
2026-04-26 15:13 -33.96100 -61.68829 29251 ft 399 kts 221°
2026-04-26 15:13 -33.98382 -61.70720 29670 ft 397 kts 221°
2026-04-26 15:13 -34.00651 -61.72602 30070 ft 396 kts 221°
2026-04-26 15:14 -34.02917 -61.74483 30383 ft 395 kts 221°
2026-04-26 15:14 -34.05179 -61.76364 30640 ft 395 kts 221°
2026-04-26 15:14 -34.07446 -61.78250 30900 ft 396 kts 221°
2026-04-26 15:14 -34.09710 -61.80134 31175 ft 395 kts 222°
2026-04-26 15:15 -34.11969 -61.82014 31439 ft 395 kts 222°
2026-04-26 15:15 -34.14206 -61.83878 31692 ft 396 kts 222°
2026-04-26 15:15 -34.16474 -61.85768 31957 ft 396 kts 222°
2026-04-26 15:15 -34.18737 -61.87656 32212 ft 396 kts 223°
2026-04-26 15:16 -34.21002 -61.89546 32464 ft 396 kts 223°
2026-04-26 15:16 -34.23271 -61.91441 32721 ft 396 kts 223°
2026-04-26 15:16 -34.25538 -61.93335 32960 ft 396 kts 223°
2026-04-26 15:16 -34.27804 -61.95230 33207 ft 396 kts 223°
2026-04-26 15:17 -34.30072 -61.97128 33438 ft 397 kts 223°
2026-04-26 15:17 -34.31572 -61.98383 33598 ft 397 kts 223°
2026-04-26 15:17 -34.34578 -62.00901 33932 ft 397 kts 223°
2026-04-26 15:17 -34.36851 -62.02807 34158 ft 397 kts 223°
2026-04-26 15:18 -34.39117 -62.04707 34370 ft 396 kts 223°
2026-04-26 15:18 -34.41380 -62.06606 34591 ft 396 kts 223°
2026-04-26 15:18 -34.43640 -62.08504 34808 ft 395 kts 223°
2026-04-26 15:18 -34.45902 -62.10406 35016 ft 395 kts 223°
2026-04-26 15:19 -34.48153 -62.12298 35252 ft 394 kts 223°
2026-04-26 15:19 -34.50405 -62.14194 35500 ft 393 kts 223°
2026-04-26 15:19 -34.52613 -62.16053 35720 ft 392 kts 223°
2026-04-26 15:19 -34.54857 -62.17945 35894 ft 393 kts 223°
2026-04-26 15:20 -34.57098 -62.19836 36034 ft 393 kts 223°
2026-04-26 15:20 -34.59350 -62.21738 36047 ft 394 kts 223°
2026-04-26 15:20 -34.63843 -62.25534 36064 ft 392 kts 223°
2026-04-26 15:21 -34.68317 -62.29318 36064 ft 391 kts 223°
2026-04-26 15:21 -34.72783 -62.33093 36064 ft 391 kts 223°
2026-04-26 15:22 -34.77208 -62.36839 36069 ft 390 kts 223°
2026-04-26 15:22 -34.81653 -62.40613 36066 ft 389 kts 223°
2026-04-26 15:23 -34.86090 -62.44386 36071 ft 389 kts 223°
2026-04-26 15:23 -34.90522 -62.48169 36067 ft 389 kts 223°
2026-04-26 15:24 -34.94919 -62.51927 36064 ft 388 kts 223°
2026-04-26 15:24 -34.99334 -62.55700 36067 ft 387 kts 223°
2026-04-26 15:25 -35.03001 -62.58835 36067 ft 387 kts 223°
2026-04-26 15:25 -35.08144 -62.63238 36071 ft 386 kts 223°
2026-04-26 15:26 -35.12538 -62.67006 36068 ft 385 kts 223°
2026-04-26 15:26 -35.16920 -62.70768 36073 ft 384 kts 222°
2026-04-26 15:27 -35.21257 -62.74497 36070 ft 384 kts 222°
2026-04-26 15:27 -35.25622 -62.78254 36076 ft 383 kts 222°
2026-04-26 15:28 -35.29977 -62.82008 36075 ft 383 kts 222°
2026-04-26 15:28 -35.34327 -62.85764 36080 ft 382 kts 222°
2026-04-26 15:29 -35.38644 -62.89495 36082 ft 382 kts 222°
2026-04-26 15:30 -35.47325 -62.97014 36085 ft 382 kts 222°
2026-04-26 15:30 -35.51660 -63.00776 36085 ft 382 kts 222°
2026-04-26 15:31 -35.58137 -63.06407 36088 ft 382 kts 222°
2026-04-26 15:32 -35.63905 -63.11431 36089 ft 382 kts 222°
2026-04-26 15:32 -35.68973 -63.15852 36096 ft 382 kts 221°
2026-04-26 15:33 -35.73311 -63.19642 36093 ft 382 kts 221°
2026-04-26 15:33 -35.77619 -63.23411 36096 ft 382 kts 221°
2026-04-26 15:34 -35.81954 -63.27209 36099 ft 382 kts 221°
2026-04-26 15:34 -35.86288 -63.31012 36098 ft 383 kts 221°
2026-04-26 15:35 -35.90625 -63.34821 36101 ft 383 kts 221°
2026-04-26 15:35 -35.94935 -63.38610 36099 ft 383 kts 221°
2026-04-26 15:36 -35.99271 -63.42419 36111 ft 383 kts 221°
2026-04-26 15:36 -36.03608 -63.46249 36111 ft 383 kts 221°
2026-04-26 15:37 -36.07942 -63.50085 36109 ft 383 kts 221°
2026-04-26 15:37 -36.12250 -63.53899 36107 ft 383 kts 221°
2026-04-26 15:38 -36.16587 -63.57741 36107 ft 384 kts 221°
2026-04-26 15:38 -36.20927 -63.61590 36108 ft 384 kts 221°
2026-04-26 15:39 -36.25267 -63.65446 36108 ft 384 kts 220°
2026-04-26 15:39 -36.28870 -63.68650 36112 ft 384 kts 220°
2026-04-26 15:40 -36.33912 -63.73141 36117 ft 384 kts 220°
2026-04-26 15:40 -36.38249 -63.77008 36114 ft 384 kts 220°
2026-04-26 15:41 -36.42583 -63.80880 36118 ft 384 kts 220°
2026-04-26 15:41 -36.46920 -63.84759 36119 ft 384 kts 220°
2026-04-26 15:42 -36.51225 -63.88615 36118 ft 384 kts 220°
2026-04-26 15:42 -36.55561 -63.92505 36113 ft 384 kts 220°
2026-04-26 15:43 -36.59892 -63.96395 36114 ft 384 kts 220°
2026-04-26 15:44 -36.66386 -64.02240 36112 ft 384 kts 220°
2026-04-26 15:44 -36.72845 -64.08064 36114 ft 384 kts 220°
2026-04-26 15:45 -36.79330 -64.13925 36114 ft 384 kts 219°
2026-04-26 15:46 -36.85810 -64.19794 36122 ft 383 kts 219°
2026-04-26 15:46 -36.89396 -64.23047 36126 ft 383 kts 219°
2026-04-26 15:47 -36.96570 -64.29566 36134 ft 383 kts 219°
2026-04-26 15:48 -37.00883 -64.33494 36131 ft 384 kts 219°
2026-04-26 15:48 -37.05194 -64.37424 36135 ft 383 kts 219°
2026-04-26 15:49 -37.09500 -64.41356 36139 ft 383 kts 219°
2026-04-26 15:49 -37.13779 -64.45269 36139 ft 383 kts 219°
2026-04-26 15:50 -37.18090 -64.49217 36143 ft 383 kts 219°
2026-04-26 15:50 -37.22391 -64.53162 36143 ft 383 kts 219°
2026-04-26 15:51 -37.26696 -64.57115 36145 ft 383 kts 219°
2026-04-26 15:51 -37.30970 -64.61046 36146 ft 383 kts 218°
2026-04-26 15:52 -37.35270 -64.65006 36149 ft 383 kts 218°
2026-04-26 15:52 -37.39583 -64.68985 36148 ft 383 kts 218°
2026-04-26 15:53 -37.43849 -64.72925 36155 ft 383 kts 218°
2026-04-26 15:53 -37.48140 -64.76895 36156 ft 383 kts 218°
2026-04-26 15:54 -37.52432 -64.80872 36157 ft 383 kts 218°
2026-04-26 15:54 -37.56726 -64.84856 36160 ft 383 kts 218°
2026-04-26 15:55 -37.61016 -64.88842 36158 ft 383 kts 218°
2026-04-26 15:55 -37.65278 -64.92807 36162 ft 383 kts 218°
2026-04-26 15:56 -37.69565 -64.96803 36167 ft 383 kts 218°
2026-04-26 15:56 -37.73853 -65.00804 36171 ft 383 kts 218°
2026-04-26 15:57 -37.78142 -65.04813 36170 ft 383 kts 218°
2026-04-26 15:57 -37.82424 -65.08821 36172 ft 383 kts 218°
2026-04-26 15:58 -37.86679 -65.12809 36171 ft 383 kts 218°
2026-04-26 15:58 -37.90961 -65.16829 36174 ft 383 kts 218°
2026-04-26 15:59 -37.95243 -65.20855 36171 ft 383 kts 218°
2026-04-26 15:59 -37.99524 -65.24886 36179 ft 383 kts 217°
2026-04-26 16:00 -38.03777 -65.28896 36182 ft 383 kts 217°
2026-04-26 16:00 -38.08052 -65.32933 36183 ft 383 kts 217°
2026-04-26 16:01 -38.12330 -65.36979 36185 ft 383 kts 217°
2026-04-26 16:01 -38.16606 -65.41030 36184 ft 383 kts 217°
2026-04-26 16:02 -38.20883 -65.45089 36228 ft 383 kts 217°
2026-04-26 16:02 -38.25119 -65.49117 36192 ft 382 kts 217°
2026-04-26 16:03 -38.29373 -65.53161 36195 ft 381 kts 217°
2026-04-26 16:03 -38.33620 -65.57206 36191 ft 381 kts 217°
2026-04-26 16:04 -38.37857 -65.61249 36193 ft 381 kts 217°
2026-04-26 16:04 -38.41768 -65.64987 36200 ft 381 kts 217°
2026-04-26 16:05 -38.45974 -65.69013 36196 ft 381 kts 217°
2026-04-26 16:05 -38.50211 -65.73074 36196 ft 381 kts 217°
2026-04-26 16:06 -38.54448 -65.77141 36204 ft 381 kts 217°
2026-04-26 16:06 -38.58680 -65.81210 36207 ft 381 kts 217°
2026-04-26 16:07 -38.62891 -65.85264 36207 ft 381 kts 217°
2026-04-26 16:07 -38.67131 -65.89349 36210 ft 382 kts 216°
2026-04-26 16:08 -38.71373 -65.93438 36209 ft 382 kts 217°
2026-04-26 16:08 -38.75618 -65.97545 36215 ft 382 kts 217°
2026-04-26 16:09 -38.79833 -66.01631 36213 ft 383 kts 217°
2026-04-26 16:09 -38.84077 -66.05753 36218 ft 383 kts 216°
2026-04-26 16:10 -38.88314 -66.09899 36214 ft 383 kts 219°
2026-04-26 16:10 -38.91964 -66.14901 36221 ft 387 kts 231°
2026-04-26 16:11 -38.94835 -66.20785 36219 ft 390 kts 235°
2026-04-26 16:11 -38.97617 -66.26706 36223 ft 390 kts 235°
2026-04-26 16:12 -39.00428 -66.32673 36226 ft 390 kts 235°
2026-04-26 16:12 -39.04656 -66.41631 36232 ft 391 kts 235°
2026-04-26 16:13 -39.07478 -66.47617 36240 ft 391 kts 235°
2026-04-26 16:13 -39.10300 -66.53612 36234 ft 392 kts 235°
2026-04-26 16:14 -39.13103 -66.59579 36241 ft 392 kts 235°
2026-04-26 16:15 -39.17333 -66.68608 36246 ft 392 kts 235°
2026-04-26 16:15 -39.20152 -66.74636 36248 ft 393 kts 235°
2026-04-26 16:16 -39.24355 -66.83647 36255 ft 393 kts 235°
2026-04-26 16:16 -39.27170 -66.89696 36259 ft 393 kts 235°
2026-04-26 16:17 -39.29996 -66.95755 36258 ft 394 kts 235°
2026-04-26 16:17 -39.32815 -67.01829 36262 ft 394 kts 236°
2026-04-26 16:18 -39.37016 -67.10916 36264 ft 395 kts 236°
2026-04-26 16:19 -39.41225 -67.20069 36264 ft 395 kts 236°
2026-04-26 16:20 -39.45436 -67.29242 36267 ft 396 kts 236°
2026-04-26 16:20 -39.49628 -67.38388 36271 ft 396 kts 236°
2026-04-26 16:21 -39.52430 -67.44515 36274 ft 395 kts 236°
2026-04-26 16:21 -39.55228 -67.50646 36275 ft 395 kts 236°
2026-04-26 16:22 -39.58023 -67.56784 36268 ft 395 kts 236°
2026-04-26 16:22 -39.60796 -67.62884 36274 ft 395 kts 236°
2026-04-26 16:23 -39.63585 -67.69031 36271 ft 395 kts 236°
2026-04-26 16:23 -39.66368 -67.75177 36274 ft 395 kts 237°
2026-04-26 16:24 -39.69150 -67.81334 36273 ft 395 kts 237°
2026-04-26 16:24 -39.71925 -67.87487 36277 ft 395 kts 237°
2026-04-26 16:25 -39.74678 -67.93606 36278 ft 395 kts 237°
2026-04-26 16:25 -39.77445 -67.99764 36280 ft 395 kts 237°
2026-04-26 16:26 -39.79741 -68.04884 36282 ft 395 kts 237°
2026-04-26 16:26 -39.83094 -68.11979 36289 ft 393 kts 234°
2026-04-26 16:27 -39.86110 -68.17853 36281 ft 393 kts 234°
2026-04-26 16:27 -39.89144 -68.23765 36284 ft 392 kts 234°
2026-04-26 16:28 -39.92156 -68.29687 36285 ft 392 kts 234°
2026-04-26 16:28 -39.95162 -68.35633 36300 ft 392 kts 234°
2026-04-26 16:29 -39.98158 -68.41576 36308 ft 392 kts 234°
2026-04-26 16:29 -40.01135 -68.47491 36292 ft 393 kts 234°
2026-04-26 16:30 -40.04130 -68.53455 36306 ft 393 kts 235°
2026-04-26 16:30 -40.07121 -68.59423 36303 ft 393 kts 235°
2026-04-26 16:31 -40.10114 -68.65404 36300 ft 394 kts 235°
2026-04-26 16:31 -40.13107 -68.71399 36311 ft 394 kts 235°
2026-04-26 16:32 -40.15597 -68.76393 36311 ft 395 kts 235°
2026-04-26 16:32 -40.19075 -68.83384 36321 ft 395 kts 235°
2026-04-26 16:33 -40.22065 -68.89408 36322 ft 395 kts 235°
2026-04-26 16:33 -40.25061 -68.95453 36326 ft 396 kts 235°
2026-04-26 16:34 -40.28050 -69.01498 36317 ft 396 kts 235°
2026-04-26 16:34 -40.31041 -69.07558 36326 ft 396 kts 236°
2026-04-26 16:35 -40.34009 -69.13581 36330 ft 396 kts 236°
2026-04-26 16:35 -40.37000 -69.19656 36331 ft 396 kts 236°
2026-04-26 16:36 -40.39988 -69.25726 36321 ft 396 kts 236°
2026-04-26 16:36 -40.42975 -69.31807 36328 ft 396 kts 236°
2026-04-26 16:37 -40.45934 -69.37849 36325 ft 396 kts 236°
2026-04-26 16:37 -40.48424 -69.42947 36212 ft 398 kts 236°
2026-04-26 16:38 -40.50418 -69.47023 35472 ft 398 kts 236°
2026-04-26 16:38 -40.51910 -69.50078 34773 ft 397 kts 236°
2026-04-26 16:38 -40.53398 -69.53129 34054 ft 396 kts 236°
2026-04-26 16:38 -40.54884 -69.56180 33297 ft 395 kts 236°
2026-04-26 16:39 -40.56361 -69.59215 32546 ft 394 kts 236°
2026-04-26 16:39 -40.57820 -69.62217 31802 ft 394 kts 236°
2026-04-26 16:39 -40.59295 -69.65256 31047 ft 394 kts 236°
2026-04-26 16:39 -40.60767 -69.68291 30443 ft 391 kts 236°
2026-04-26 16:40 -40.62217 -69.71284 29834 ft 386 kts 236°
2026-04-26 16:40 -40.63649 -69.74243 29262 ft 380 kts 236°
2026-04-26 16:40 -40.65058 -69.77158 28725 ft 374 kts 236°
2026-04-26 16:40 -40.66446 -69.80029 28173 ft 369 kts 236°
2026-04-26 16:41 -40.67827 -69.82890 27247 ft 373 kts 236°
2026-04-26 16:41 -40.69233 -69.85803 26270 ft 380 kts 236°
2026-04-26 16:41 -40.70631 -69.88703 25568 ft 379 kts 236°
2026-04-26 16:41 -40.72036 -69.91621 24997 ft 376 kts 236°
2026-04-26 16:42 -40.73426 -69.94514 24433 ft 372 kts 236°
2026-04-26 16:42 -40.74809 -69.97392 23818 ft 370 kts 236°
2026-04-26 16:42 -40.76184 -70.00256 23135 ft 369 kts 236°
2026-04-26 16:42 -40.77546 -70.03096 22618 ft 363 kts 236°
2026-04-26 16:43 -40.78882 -70.05886 22130 ft 357 kts 237°
2026-04-26 16:43 -40.80197 -70.08632 21666 ft 351 kts 237°
2026-04-26 16:43 -40.81493 -70.11342 21182 ft 347 kts 237°
2026-04-26 16:43 -40.82753 -70.13979 20737 ft 343 kts 237°
2026-04-26 16:44 -40.84016 -70.16625 20273 ft 339 kts 237°
2026-04-26 16:44 -40.85265 -70.19242 19812 ft 336 kts 237°
2026-04-26 16:44 -40.86507 -70.21847 19369 ft 335 kts 237°
2026-04-26 16:44 -40.87747 -70.24452 18905 ft 334 kts 237°
2026-04-26 16:45 -40.88991 -70.27064 18421 ft 340 kts 237°
2026-04-26 16:45 -40.90260 -70.29733 17933 ft 345 kts 237°
2026-04-26 16:45 -40.91530 -70.32408 17458 ft 341 kts 237°
2026-04-26 16:45 -40.92780 -70.35042 16998 ft 336 kts 237°
2026-04-26 16:46 -40.93994 -70.37603 16562 ft 331 kts 237°
2026-04-26 16:46 -40.95210 -70.40169 16096 ft 327 kts 237°
2026-04-26 16:46 -40.96409 -70.42701 15654 ft 323 kts 237°
2026-04-26 16:46 -40.97614 -70.45191 15236 ft 319 kts 234°
2026-04-26 16:47 -40.98971 -70.47481 15019 ft 315 kts 230°
2026-04-26 16:47 -41.00403 -70.49723 14761 ft 322 kts 230°
2026-04-26 16:47 -41.01841 -70.51989 14343 ft 320 kts 230°
2026-04-26 16:47 -41.03256 -70.54250 13881 ft 317 kts 231°
2026-04-26 16:48 -41.04646 -70.56489 13434 ft 312 kts 231°
2026-04-26 16:48 -41.06011 -70.58701 12982 ft 309 kts 231°
2026-04-26 16:48 -41.07352 -70.60879 12773 ft 299 kts 231°
2026-04-26 16:48 -41.08640 -70.62973 12625 ft 288 kts 231°
2026-04-26 16:49 -41.09863 -70.64963 12502 ft 277 kts 231°
2026-04-26 16:49 -41.11056 -70.66905 12392 ft 267 kts 231°
2026-04-26 16:49 -41.11975 -70.68941 12145 ft 266 kts 251°
2026-04-26 16:49 -41.12268 -70.71438 11944 ft 291 kts 265°
2026-04-26 16:50 -41.12135 -70.74225 11860 ft 306 kts 271°
2026-04-26 16:50 -41.11867 -70.76983 11786 ft 297 kts 272°
2026-04-26 16:50 -41.11598 -70.79632 11699 ft 283 kts 272°
2026-04-26 16:50 -41.11364 -70.82161 11622 ft 270 kts 271°
2026-04-26 16:51 -41.11147 -70.84544 11514 ft 252 kts 271°
2026-04-26 16:51 -41.10948 -70.86768 11280 ft 244 kts 271°
2026-04-26 16:51 -41.10752 -70.88987 11008 ft 241 kts 271°
2026-04-26 16:51 -41.10554 -70.91190 10757 ft 240 kts 271°
2026-04-26 16:52 -41.10357 -70.93370 10591 ft 235 kts 271°
2026-04-26 16:52 -41.10292 -70.94093 10533 ft 233 kts 270°
2026-04-26 16:52 -41.09975 -70.97566 10206 ft 226 kts 270°
2026-04-26 16:52 -41.09789 -70.99608 10049 ft 220 kts 271°
2026-04-26 16:53 -41.09606 -71.01606 9882 ft 216 kts 271°
2026-04-26 16:53 -41.09426 -71.03560 9710 ft 211 kts 271°
2026-04-26 16:53 -41.09251 -71.05448 9497 ft 207 kts 271°
2026-04-26 16:53 -41.09079 -71.07326 9284 ft 204 kts 271°
2026-04-26 16:54 -41.08909 -71.09167 9185 ft 199 kts 271°
2026-04-26 16:54 -41.08741 -71.10972 9035 ft 196 kts 271°
2026-04-26 16:54 -41.08574 -71.12764 8828 ft 195 kts 272°
2026-04-26 16:54 -41.08406 -71.14550 8615 ft 195 kts 272°
2026-04-26 16:55 -41.08241 -71.16326 8420 ft 194 kts 272°
2026-04-26 16:55 -41.08055 -71.18100 8182 ft 195 kts 275°
2026-04-26 16:55 -41.07819 -71.19868 7928 ft 194 kts 276°
2026-04-26 16:55 -41.07603 -71.21612 7669 ft 195 kts 275°
2026-04-26 16:56 -41.07187 -71.25164 7137 ft 195 kts 276°
2026-04-26 16:56 -41.06995 -71.26924 7071 ft 189 kts 276°
2026-04-26 16:56 -41.06812 -71.28634 7061 ft 187 kts 276°
2026-04-26 16:57 -41.06630 -71.30364 7073 ft 192 kts 275°
2026-04-26 16:57 -41.06443 -71.32138 7081 ft 196 kts 275°
2026-04-26 16:57 -41.06065 -71.35721 6889 ft 203 kts 274°
2026-04-26 16:58 -41.06430 -71.37518 6580 ft 207 kts 235°
2026-04-26 16:58 -41.06758 -71.37960 6486 ft 210 kts 221°
2026-04-26 16:58 -41.10204 -71.36496 5706 ft 236 kts 111°
2026-04-26 16:59 -41.10269 -71.34388 5433 ft 228 kts 72°
2026-04-26 16:59 -41.10207 -71.30352 4876 ft 217 kts 105°
2026-04-26 17:00 -41.11272 -71.26853 4328 ft 189 kts 115°
2026-04-26 17:00 -41.12254 -71.24006 3895 ft 155 kts 114°
2026-04-26 17:00 -41.12701 -71.22738 3676 ft 146 kts 112°
2026-04-26 17:01 -41.13112 -71.21538 3502 ft 141 kts 112°
2026-04-26 17:01 -41.13513 -71.20376 3340 ft 141 kts 112°
2026-04-26 17:01 -41.13916 -71.19187 3131 ft 142 kts 111°
2026-04-26 17:01 -41.14331 -71.17995 2936 ft 143 kts 112°
2026-04-26 17:02 -41.14751 -71.16805 2764 ft 142 kts 114°
2026-04-26 17:02 -41.15121 -71.15742 2750 ft 101 kts 114°
2026-04-26 17:02 -41.15326 -71.15159 2753 ft 38 kts 115°
2026-04-26 17:02 -41.15383 -71.14990 2753 ft 16 kts 114°
2026-04-26 17:03 -41.15431 -71.14856 2750 ft 16 kts 114°
2026-04-26 17:03 -41.15470 -71.14746 2751 ft 15 kts 115°
2026-04-26 17:03 -41.15490 -71.14690 2749 ft 15 kts 115°
2026-04-26 17:04 -41.15527 -71.14565 2750 ft 14 kts 99°
2026-04-26 17:04 -41.15492 -71.14499 2748 ft 8 kts 24°
2026-04-26 17:04 -41.15486 -71.14495 2748 ft 0 kts 24°
2026-04-26 17:04 -41.15485 -71.14494 2748 ft 0 kts 24°
2026-04-26 17:05 -41.15477 -71.14490 2856 ft 3 kts 24°
2026-04-26 17:05 -41.15447 -71.14472 2748 ft 7 kts 24°
2026-04-26 17:05 -41.15399 -71.14487 2748 ft 8 kts 312°
2026-04-26 17:05 -41.15373 -71.14559 2748 ft 9 kts 295°
2026-04-26 17:06 -41.15343 -71.14644 2748 ft 11 kts 295°
2026-04-26 17:06 -41.15311 -71.14737 2750 ft 11 kts 295°
2026-04-26 17:06 -41.15279 -71.14828 2751 ft 11 kts 295°
2026-04-26 17:06 -41.15259 -71.14887 2748 ft 11 kts 295°
2026-04-26 17:07 -41.15218 -71.15002 2749 ft 10 kts 295°
2026-04-26 17:07 -41.15190 -71.15084 2748 ft 10 kts 295°
2026-04-26 17:07 -41.15162 -71.15165 2748 ft 10 kts 295°
2026-04-26 17:07 -41.15134 -71.15245 2750 ft 9 kts 295°
2026-04-26 17:08 -41.15107 -71.15322 2749 ft 9 kts 295°
2026-04-26 17:08 -41.15081 -71.15396 2748 ft 9 kts 296°
2026-04-26 17:08 -41.15064 -71.15445 2749 ft 9 kts 295°
2026-04-26 17:08 -41.15039 -71.15516 2748 ft 8 kts 295°
2026-04-26 17:09 -41.15007 -71.15607 2750 ft 8 kts 295°
2026-04-26 17:09 -41.14999 -71.15630 2748 ft 8 kts 295°
2026-04-26 17:09 -41.14955 -71.15756 2748 ft 10 kts 295°
2026-04-26 17:09 -41.14934 -71.15814 2748 ft 11 kts 295°
2026-04-26 17:10 -41.14903 -71.15904 2749 ft 11 kts 295°
2026-04-26 17:10 -41.14860 -71.16027 2750 ft 11 kts 295°
2026-04-26 17:10 -41.14840 -71.16086 2748 ft 11 kts 294°
2026-04-26 17:10 -41.14800 -71.16201 2749 ft 10 kts 298°
2026-04-26 17:11 -41.14767 -71.16240 2749 ft 10 kts 343°
2026-04-26 17:11 -41.14712 -71.16189 2750 ft 5 kts 60°
2026-04-26 17:11 -41.14704 -71.16172 2750 ft 2 kts 58°
2026-04-26 17:11 -41.14701 -71.16165 2749 ft 1 kts 58°
2026-04-26 17:12 -41.14697 -71.16156 2748 ft 0 kts 58°